Time,TemperatureF,DewpointF,PressureIn,WindDirection,WindDirectionDegrees,WindSpeedMPH,WindSpeedGustMPH,Humidity,HourlyPrecipIn,Conditions,Clouds,dailyrainin,SoftwareType,DateUTC
2013-11-06 00:00:00,36.9,31.0,30.36,SSE,155,0.0,0.0,79,0.00,,,0.00,Wunderground v.1.15,2013-11-06 05:00:00,
2013-11-06 00:01:00,36.9,31.0,30.36,SSE,155,0.0,0.0,79,0.00,,,0.00,Wunderground v.1.15,2013-11-06 05:01:00,
2013-11-06 00:02:00,36.8,30.9,30.36,SSE,155,0.0,0.0,79,0.00,,,0.00,Wunderground v.1.15,2013-11-06 05:02:00,
2013-11-06 00:04:00,36.8,30.9,30.36,SSE,155,0.0,0.0,79,0.00,,,0.00,Wunderground v.1.15,2013-11-06 05:04:00,
2013-11-06 00:05:00,36.7,30.8,30.36,SSE,155,0.0,0.0,79,0.00,,,0.00,Wunderground v.1.15,2013-11-06 05:05:00,
2013-11-06 00:06:00,36.7,30.8,30.36,SSE,155,0.0,0.0,79,0.00,,,0.00,Wunderground v.1.15,2013-11-06 05:06:00,
2013-11-06 00:07:00,36.6,31.0,30.36,SSE,155,0.0,0.0,80,0.00,,,0.00,Wunderground v.1.15,2013-11-06 05:07:00,
2013-11-06 00:12:00,36.4,30.8,30.36,SSE,155,0.0,0.0,80,0.00,,,0.00,Wunderground v.1.15,2013-11-06 05:12:00,
2013-11-06 00:18:00,36.4,30.8,30.36,SSE,155,0.0,0.0,80,0.00,,,0.00,Wunderground v.1.15,2013-11-06 05:18:00,
2013-11-06 00:23:00,36.3,31.0,30.36,SSE,155,0.0,0.0,81,0.00,,,0.00,Wunderground v.1.15,2013-11-06 05:23:00,
2013-11-06 00:29:00,36.2,30.9,30.36,SSE,155,0.0,0.0,81,0.00,,,0.00,Wunderground v.1.15,2013-11-06 05:29:00,
2013-11-06 00:34:00,36.0,30.7,30.36,SSE,155,0.0,0.0,81,0.00,,,0.00,Wunderground v.1.15,2013-11-06 05:34:00,
2013-11-06 00:39:00,35.9,31.2,30.36,SSE,155,0.0,0.0,83,0.00,,,0.00,Wunderground v.1.15,2013-11-06 05:39:00,
2013-11-06 00:44:00,35.7,31.3,30.36,SSE,155,0.0,0.0,84,0.00,,,0.00,Wunderground v.1.15,2013-11-06 05:44:00,
2013-11-06 00:50:00,35.5,30.8,30.36,SSE,155,0.0,0.0,83,0.00,,,0.00,Wunderground v.1.15,2013-11-06 05:50:00,
2013-11-06 00:55:00,35.3,30.7,30.36,SSE,155,0.0,0.0,83,0.00,,,0.00,Wunderground v.1.15,2013-11-06 05:55:00,
2013-11-06 01:00:00,35.2,30.9,30.35,SSE,155,0.0,0.0,84,0.00,,,0.00,Wunderground v.1.15,2013-11-06 06:00:00,
2013-11-06 01:06:00,35.2,30.9,30.35,SSE,155,0.0,0.0,84,0.00,,,0.00,Wunderground v.1.15,2013-11-06 06:06:00,
2013-11-06 01:11:00,35.2,30.9,30.35,SSE,155,0.0,0.0,84,0.00,,,0.00,Wunderground v.1.15,2013-11-06 06:11:00,
2013-11-06 01:16:00,35.1,30.8,30.35,SSE,155,0.0,0.0,84,0.00,,,0.00,Wunderground v.1.15,2013-11-06 06:16:00,
2013-11-06 01:21:00,35.1,30.8,30.35,SSE,155,0.0,0.0,84,0.00,,,0.00,Wunderground v.1.15,2013-11-06 06:21:00,
2013-11-06 01:27:00,34.9,30.6,30.34,SSE,155,0.0,0.0,84,0.00,,,0.00,Wunderground v.1.15,2013-11-06 06:27:00,
2013-11-06 01:32:00,34.8,30.8,30.34,SSE,155,0.0,0.0,85,0.00,,,0.00,Wunderground v.1.15,2013-11-06 06:32:00,
2013-11-06 01:38:00,34.7,30.7,30.34,SSE,155,0.0,0.0,85,0.00,,,0.00,Wunderground v.1.15,2013-11-06 06:38:00,
2013-11-06 01:43:00,34.7,30.7,30.34,SSE,155,0.0,0.0,85,0.00,,,0.00,Wunderground v.1.15,2013-11-06 06:43:00,
2013-11-06 01:48:00,34.6,30.8,30.33,SSE,155,0.0,0.0,86,0.00,,,0.00,Wunderground v.1.15,2013-11-06 06:48:00,
2013-11-06 01:54:00,34.6,30.8,30.33,SSE,155,0.0,0.0,86,0.00,,,0.00,Wunderground v.1.15,2013-11-06 06:54:00,
2013-11-06 01:59:00,34.5,30.5,30.33,SSE,155,0.0,0.0,85,0.00,,,0.00,Wunderground v.1.15,2013-11-06 06:59:00,
2013-11-06 02:05:00,34.3,30.5,30.33,SSE,155,0.0,0.0,86,0.00,,,0.00,Wunderground v.1.15,2013-11-06 07:05:00,
2013-11-06 02:11:00,34.3,30.5,30.32,SSE,155,0.0,0.0,86,0.00,,,0.00,Wunderground v.1.15,2013-11-06 07:11:00,
2013-11-06 02:17:00,34.3,30.8,30.32,SSE,155,0.0,0.0,87,0.00,,,0.00,Wunderground v.1.15,2013-11-06 07:17:00,
2013-11-06 02:22:00,34.2,30.4,30.32,SSE,155,0.0,0.0,86,0.00,,,0.00,Wunderground v.1.15,2013-11-06 07:22:00,
2013-11-06 02:27:00,34.1,30.6,30.32,SSE,155,0.0,0.0,87,0.00,,,0.00,Wunderground v.1.15,2013-11-06 07:27:00,
2013-11-06 02:33:00,34.0,30.5,30.31,SSE,155,0.0,0.0,87,0.00,,,0.00,Wunderground v.1.15,2013-11-06 07:33:00,
2013-11-06 02:38:00,33.8,30.3,30.31,SSE,155,0.0,0.0,87,0.00,,,0.00,Wunderground v.1.15,2013-11-06 07:38:00,
2013-11-06 02:43:00,33.7,30.2,30.31,SSE,155,0.0,0.0,87,0.00,,,0.00,Wunderground v.1.15,2013-11-06 07:43:00,
2013-11-06 02:49:00,33.6,30.4,30.31,SSE,155,0.0,0.0,88,0.00,,,0.00,Wunderground v.1.15,2013-11-06 07:49:00,
2013-11-06 02:54:00,33.6,30.4,30.31,SSE,155,0.0,0.0,88,0.00,,,0.00,Wunderground v.1.15,2013-11-06 07:54:00,
2013-11-06 02:59:00,33.5,30.3,30.30,SSE,155,0.0,0.0,88,0.00,,,0.00,Wunderground v.1.15,2013-11-06 07:59:00,
2013-11-06 03:05:00,33.4,30.2,30.30,SSE,155,0.0,0.0,88,0.00,,,0.00,Wunderground v.1.15,2013-11-06 08:05:00,
2013-11-06 03:10:00,33.3,30.1,30.30,SSE,155,0.0,0.0,88,0.00,,,0.00,Wunderground v.1.15,2013-11-06 08:10:00,
2013-11-06 03:15:00,33.2,30.3,30.30,SSE,155,0.0,0.0,89,0.00,,,0.00,Wunderground v.1.15,2013-11-06 08:15:00,
2013-11-06 03:20:00,33.1,30.2,30.30,SSE,155,0.0,0.0,89,0.00,,,0.00,Wunderground v.1.15,2013-11-06 08:20:00,
2013-11-06 03:25:00,33.1,30.2,30.30,SSE,155,0.0,0.0,89,0.00,,,0.00,Wunderground v.1.15,2013-11-06 08:25:00,
2013-11-06 03:31:00,33.0,30.1,30.30,SSE,155,0.0,0.0,89,0.00,,,0.00,Wunderground v.1.15,2013-11-06 08:31:00,
2013-11-06 03:36:00,33.0,30.1,30.30,SSE,155,0.0,0.0,89,0.00,,,0.00,Wunderground v.1.15,2013-11-06 08:36:00,
2013-11-06 03:42:00,32.9,30.0,30.29,SSE,155,0.0,0.0,89,0.00,,,0.00,Wunderground v.1.15,2013-11-06 08:42:00,
2013-11-06 03:47:00,32.8,29.9,30.29,SSE,155,0.0,0.0,89,0.00,,,0.00,Wunderground v.1.15,2013-11-06 08:47:00,
2013-11-06 03:52:00,32.8,30.2,30.29,SSE,155,0.0,0.0,90,0.00,,,0.00,Wunderground v.1.15,2013-11-06 08:52:00,
2013-11-06 03:57:00,32.8,30.2,30.29,SSE,155,0.0,0.0,90,0.00,,,0.00,Wunderground v.1.15,2013-11-06 08:57:00,
2013-11-06 04:02:00,32.8,30.2,30.29,SSE,155,0.0,0.0,90,0.00,,,0.00,Wunderground v.1.15,2013-11-06 09:02:00,
2013-11-06 04:08:00,32.7,30.1,30.29,SSE,155,0.0,0.0,90,0.00,,,0.00,Wunderground v.1.15,2013-11-06 09:08:00,
2013-11-06 04:13:00,32.6,30.0,30.29,SSE,155,0.0,0.0,90,0.00,,,0.00,Wunderground v.1.15,2013-11-06 09:13:00,
2013-11-06 04:18:00,32.6,30.3,30.29,SSE,155,0.0,0.0,91,0.00,,,0.00,Wunderground v.1.15,2013-11-06 09:18:00,
2013-11-06 04:23:00,32.6,30.3,30.29,SSE,155,0.0,0.0,91,0.00,,,0.00,Wunderground v.1.15,2013-11-06 09:23:00,
2013-11-06 04:28:00,32.6,30.3,30.29,SSE,155,0.0,0.0,91,0.00,,,0.00,Wunderground v.1.15,2013-11-06 09:28:00,
2013-11-06 04:34:00,32.8,30.7,30.29,SSE,155,0.0,0.0,92,0.00,,,0.00,Wunderground v.1.15,2013-11-06 09:34:00,
2013-11-06 04:39:00,32.9,30.8,30.29,SSE,155,0.0,0.0,92,0.00,,,0.00,Wunderground v.1.15,2013-11-06 09:39:00,
2013-11-06 04:45:00,33.0,30.7,30.29,SSE,155,0.0,0.0,91,0.00,,,0.00,Wunderground v.1.15,2013-11-06 09:45:00,
2013-11-06 04:50:00,33.0,30.7,30.29,SSE,155,0.0,0.0,91,0.00,,,0.00,Wunderground v.1.15,2013-11-06 09:50:00,
2013-11-06 04:55:00,33.0,30.7,30.29,SSE,155,0.0,0.0,91,0.00,,,0.00,Wunderground v.1.15,2013-11-06 09:55:00,
2013-11-06 05:01:00,33.1,31.0,30.29,SSE,155,0.0,0.0,92,0.00,,,0.00,Wunderground v.1.15,2013-11-06 10:01:00,
2013-11-06 05:06:00,33.1,30.8,30.29,SSE,155,0.0,0.0,91,0.00,,,0.00,Wunderground v.1.15,2013-11-06 10:06:00,
2013-11-06 05:11:00,33.2,30.9,30.29,SSE,155,0.0,0.0,91,0.00,,,0.00,Wunderground v.1.15,2013-11-06 10:11:00,
2013-11-06 05:16:00,33.2,30.9,30.29,SSE,155,0.0,0.0,91,0.00,,,0.00,Wunderground v.1.15,2013-11-06 10:16:00,
2013-11-06 05:21:00,33.2,30.9,30.29,SSE,155,0.0,0.0,91,0.00,,,0.00,Wunderground v.1.15,2013-11-06 10:21:00,
2013-11-06 05:26:00,33.2,30.9,30.29,SSE,155,0.0,0.0,91,0.00,,,0.00,Wunderground v.1.15,2013-11-06 10:26:00,
2013-11-06 05:32:00,33.2,31.1,30.29,SSE,155,0.0,0.0,92,0.00,,,0.00,Wunderground v.1.15,2013-11-06 10:32:00,
2013-11-06 05:37:00,33.2,30.9,30.29,SSE,155,0.0,0.0,91,0.00,,,0.00,Wunderground v.1.15,2013-11-06 10:37:00,
2013-11-06 05:42:00,33.2,30.9,30.28,SSE,155,0.0,0.0,91,0.00,,,0.00,Wunderground v.1.15,2013-11-06 10:42:00,
2013-11-06 05:47:00,33.1,31.0,30.28,SSE,155,0.0,0.0,92,0.00,,,0.00,Wunderground v.1.15,2013-11-06 10:47:00,
2013-11-06 05:53:00,33.0,30.9,30.28,SSE,155,0.0,0.0,92,0.00,,,0.00,Wunderground v.1.15,2013-11-06 10:53:00,
2013-11-06 05:58:00,33.0,30.9,30.28,SSE,155,0.0,0.0,92,0.00,,,0.00,Wunderground v.1.15,2013-11-06 10:58:00,
2013-11-06 06:03:00,33.0,30.9,30.27,SSE,155,0.0,0.0,92,0.00,,,0.00,Wunderground v.1.15,2013-11-06 11:03:00,
2013-11-06 06:09:00,33.0,30.9,30.27,SSE,155,0.0,0.0,92,0.00,,,0.00,Wunderground v.1.15,2013-11-06 11:09:00,
2013-11-06 06:14:00,33.0,30.9,30.27,SSE,155,0.0,0.0,92,0.00,,,0.00,Wunderground v.1.15,2013-11-06 11:14:00,
2013-11-06 06:19:00,33.0,30.9,30.27,SSE,155,0.0,0.0,92,0.00,,,0.00,Wunderground v.1.15,2013-11-06 11:19:00,
2013-11-06 06:24:00,33.0,30.9,30.27,SSE,155,0.0,0.0,92,0.00,,,0.00,Wunderground v.1.15,2013-11-06 11:24:00,
2013-11-06 06:29:00,33.0,30.9,30.27,SSE,155,0.0,0.0,92,0.00,,,0.00,Wunderground v.1.15,2013-11-06 11:29:00,
2013-11-06 06:34:00,33.0,30.9,30.27,SSE,155,0.0,0.0,92,0.00,,,0.00,Wunderground v.1.15,2013-11-06 11:34:00,
2013-11-06 06:39:00,32.9,30.8,30.27,SSE,155,0.0,0.0,92,0.00,,,0.00,Wunderground v.1.15,2013-11-06 11:39:00,
2013-11-06 06:45:00,32.9,30.8,30.27,SSE,155,0.0,0.0,92,0.00,,,0.00,Wunderground v.1.15,2013-11-06 11:45:00,
2013-11-06 06:50:00,32.9,30.8,30.28,SSE,155,0.0,0.0,92,0.00,,,0.00,Wunderground v.1.15,2013-11-06 11:50:00,
2013-11-06 06:55:00,32.8,30.7,30.27,SSE,155,0.0,0.0,92,0.00,,,0.00,Wunderground v.1.15,2013-11-06 11:55:00,
2013-11-06 07:00:00,32.8,30.7,30.27,SSE,155,0.0,0.0,92,0.00,,,0.00,Wunderground v.1.15,2013-11-06 12:00:00,
2013-11-06 07:06:00,32.8,31.0,30.27,SSE,155,0.0,0.0,93,0.00,,,0.00,Wunderground v.1.15,2013-11-06 12:06:00,
2013-11-06 07:11:00,32.9,31.1,30.27,SSE,155,0.0,0.0,93,0.00,,,0.00,Wunderground v.1.15,2013-11-06 12:11:00,
2013-11-06 07:16:00,32.9,31.1,30.27,SSE,155,0.0,0.0,93,0.00,,,0.00,Wunderground v.1.15,2013-11-06 12:16:00,
2013-11-06 07:22:00,32.9,31.1,30.27,SSE,155,0.0,0.0,93,0.00,,,0.00,Wunderground v.1.15,2013-11-06 12:22:00,
2013-11-06 07:27:00,32.9,31.1,30.27,SSE,155,0.0,0.0,93,0.00,,,0.00,Wunderground v.1.15,2013-11-06 12:27:00,
2013-11-06 07:32:00,32.9,31.1,30.27,SSE,155,0.0,0.0,93,0.00,,,0.00,Wunderground v.1.15,2013-11-06 12:32:00,
2013-11-06 07:37:00,33.0,31.2,30.27,SSE,155,0.0,0.0,93,0.00,,,0.00,Wunderground v.1.15,2013-11-06 12:37:00,
2013-11-06 07:42:00,33.3,31.5,30.27,SSE,155,0.0,0.0,93,0.00,,,0.00,Wunderground v.1.15,2013-11-06 12:42:00,
2013-11-06 07:47:00,34.1,32.6,30.26,SSE,155,0.0,0.0,94,0.00,,,0.00,Wunderground v.1.15,2013-11-06 12:47:00,
2013-11-06 07:53:00,35.3,33.5,30.26,SSE,155,0.0,0.0,93,0.00,,,0.00,Wunderground v.1.15,2013-11-06 12:53:00,
2013-11-06 07:59:00,36.2,33.8,30.26,SSE,155,0.0,0.0,91,0.00,,,0.00,Wunderground v.1.15,2013-11-06 12:59:00,
2013-11-06 08:05:00,37.7,35.3,30.25,SSE,155,0.0,0.0,91,0.00,,,0.00,Wunderground v.1.15,2013-11-06 13:05:00,
2013-11-06 08:10:00,38.9,35.6,30.26,SSE,155,0.0,0.0,88,0.00,,,0.00,Wunderground v.1.15,2013-11-06 13:10:00,
2013-11-06 08:15:00,39.9,36.3,30.25,SSE,155,0.0,1.0,87,0.00,,,0.00,Wunderground v.1.15,2013-11-06 13:15:00,
2013-11-06 08:20:00,40.8,36.9,30.25,SSE,155,0.0,0.0,86,0.00,,,0.00,Wunderground v.1.15,2013-11-06 13:20:00,
2013-11-06 08:25:00,41.9,37.7,30.25,SSE,155,0.0,0.0,85,0.00,,,0.00,Wunderground v.1.15,2013-11-06 13:25:00,
2013-11-06 08:30:00,43.1,38.6,30.25,SSE,155,0.0,0.0,84,0.00,,,0.00,Wunderground v.1.15,2013-11-06 13:30:00,
2013-11-06 08:36:00,44.4,39.2,30.25,SSE,155,0.0,0.0,82,0.00,,,0.00,Wunderground v.1.15,2013-11-06 13:36:00,
2013-11-06 08:42:00,45.9,40.7,30.25,SSE,155,0.0,0.0,82,0.00,,,0.00,Wunderground v.1.15,2013-11-06 13:42:00,
2013-11-06 08:47:00,46.9,40.4,30.25,SSE,155,0.0,1.0,78,0.00,,,0.00,Wunderground v.1.15,2013-11-06 13:47:00,
2013-11-06 08:52:00,47.6,40.7,30.25,SSE,155,0.0,1.0,77,0.00,,,0.00,Wunderground v.1.15,2013-11-06 13:52:00,
2013-11-06 08:57:00,48.1,41.2,30.25,SSE,155,0.0,1.0,77,0.00,,,0.00,Wunderground v.1.15,2013-11-06 13:57:00,
2013-11-06 09:02:00,48.6,42.0,30.25,SSE,155,0.0,0.0,78,0.00,,,0.00,Wunderground v.1.15,2013-11-06 14:02:00,
2013-11-06 09:08:00,50.1,44.8,30.24,ESE,113,0.0,1.0,82,0.00,,,0.00,Wunderground v.1.15,2013-11-06 14:08:00,
2013-11-06 09:14:00,52.0,46.3,30.23,ESE,112,0.0,0.0,81,0.00,,,0.00,Wunderground v.1.15,2013-11-06 14:14:00,
2013-11-06 09:19:00,53.4,46.7,30.23,SE,146,0.0,1.0,78,0.00,,,0.00,Wunderground v.1.15,2013-11-06 14:19:00,
2013-11-06 09:24:00,54.5,47.4,30.23,ESE,115,0.0,1.0,77,0.00,,,0.00,Wunderground v.1.15,2013-11-06 14:24:00,
2013-11-06 09:29:00,55.5,47.7,30.23,ESE,118,1.0,4.0,75,0.00,,,0.00,Wunderground v.1.15,2013-11-06 14:29:00,
2013-11-06 09:34:00,56.2,48.0,30.23,SSE,167,1.0,2.0,74,0.00,,,0.00,Wunderground v.1.15,2013-11-06 14:34:00,
2013-11-06 09:39:00,56.8,47.9,30.22,SSE,153,1.0,2.0,72,0.00,,,0.00,Wunderground v.1.15,2013-11-06 14:39:00,
2013-11-06 09:45:00,57.7,48.7,30.22,SSE,166,1.0,1.0,72,0.00,,,0.00,Wunderground v.1.15,2013-11-06 14:45:00,
2013-11-06 09:50:00,58.7,48.6,30.22,ENE,67,1.0,1.0,69,0.00,,,0.00,Wunderground v.1.15,2013-11-06 14:50:00,
2013-11-06 09:55:00,59.5,48.9,30.22,ESE,123,2.0,3.0,68,0.00,,,0.00,Wunderground v.1.15,2013-11-06 14:55:00,
2013-11-06 10:00:00,60.4,49.8,30.22,East,100,1.0,1.0,68,0.00,,,0.00,Wunderground v.1.15,2013-11-06 15:00:00,
2013-11-06 10:06:00,61.2,50.2,30.22,South,188,1.0,3.0,67,0.00,,,0.00,Wunderground v.1.15,2013-11-06 15:06:00,
2013-11-06 10:11:00,61.7,50.2,30.21,SSE,163,1.0,5.0,66,0.00,,,0.00,Wunderground v.1.15,2013-11-06 15:11:00,
2013-11-06 10:17:00,62.0,49.7,30.21,SSE,148,2.0,5.0,64,0.00,,,0.00,Wunderground v.1.15,2013-11-06 15:17:00,
2013-11-06 10:22:00,62.5,50.2,30.21,ESE,117,2.0,3.0,64,0.00,,,0.00,Wunderground v.1.15,2013-11-06 15:22:00,
2013-11-06 10:27:00,63.1,50.7,30.21,South,190,1.0,6.0,64,0.00,,,0.00,Wunderground v.1.15,2013-11-06 15:27:00,
2013-11-06 10:32:00,63.5,50.2,30.20,SE,144,2.0,3.0,62,0.00,,,0.00,Wunderground v.1.15,2013-11-06 15:32:00,
2013-11-06 10:37:00,64.0,50.3,30.20,South,173,2.0,4.0,61,0.00,,,0.00,Wunderground v.1.15,2013-11-06 15:37:00,
2013-11-06 10:42:00,64.4,51.1,30.20,East,93,2.0,3.0,62,0.00,,,0.00,Wunderground v.1.15,2013-11-06 15:42:00,
2013-11-06 10:47:00,64.8,50.6,30.20,SE,138,2.0,4.0,60,0.00,,,0.00,Wunderground v.1.15,2013-11-06 15:47:00,
2013-11-06 10:52:00,65.2,50.5,30.19,ESE,103,2.0,3.0,59,0.00,,,0.00,Wunderground v.1.15,2013-11-06 15:52:00,
2013-11-06 10:58:00,65.7,51.4,30.19,South,181,1.0,4.0,60,0.00,,,0.00,Wunderground v.1.15,2013-11-06 15:58:00,
2013-11-06 11:03:00,66.2,50.5,30.18,ESE,113,1.0,2.0,57,0.00,,,0.00,Wunderground v.1.15,2013-11-06 16:03:00,
2013-11-06 11:08:00,66.3,50.6,30.18,South,190,2.0,5.0,57,0.00,,,0.00,Wunderground v.1.15,2013-11-06 16:08:00,
2013-11-06 11:14:00,66.8,50.6,30.18,SSE,150,2.0,2.0,56,0.00,,,0.00,Wunderground v.1.15,2013-11-06 16:14:00,
2013-11-06 11:19:00,67.3,50.6,30.18,SE,129,1.0,2.0,55,0.00,,,0.00,Wunderground v.1.15,2013-11-06 16:19:00,
2013-11-06 11:24:00,67.5,51.2,30.18,South,181,2.0,3.0,56,0.00,,,0.00,Wunderground v.1.15,2013-11-06 16:24:00,
2013-11-06 11:29:00,68.0,50.7,30.17,SSE,155,2.0,4.0,54,0.00,,,0.00,Wunderground v.1.15,2013-11-06 16:29:00,
2013-11-06 11:35:00,68.3,50.5,30.17,SE,143,1.0,5.0,53,0.00,,,0.00,Wunderground v.1.15,2013-11-06 16:35:00,
2013-11-06 11:40:00,68.6,50.3,30.17,SE,142,1.0,3.0,52,0.00,,,0.00,Wunderground v.1.15,2013-11-06 16:40:00,
2013-11-06 11:45:00,69.1,51.2,30.17,ESE,110,2.0,3.0,53,0.00,,,0.00,Wunderground v.1.15,2013-11-06 16:45:00,
2013-11-06 11:51:00,69.4,49.9,30.16,South,183,2.0,3.0,50,0.00,,,0.00,Wunderground v.1.15,2013-11-06 16:51:00,
2013-11-06 11:56:00,69.6,51.2,30.15,NE,54,2.0,3.0,52,0.00,,,0.00,Wunderground v.1.15,2013-11-06 16:56:00,
2013-11-06 12:02:00,70.1,50.6,30.15,SE,144,2.0,2.0,50,0.00,,,0.00,Wunderground v.1.15,2013-11-06 17:02:00,
2013-11-06 12:07:00,70.5,51.0,30.15,East,93,2.0,9.0,50,0.00,,,0.00,Wunderground v.1.15,2013-11-06 17:07:00,
2013-11-06 12:12:00,70.6,51.1,30.15,East,90,3.0,3.0,50,0.00,,,0.00,Wunderground v.1.15,2013-11-06 17:12:00,
2013-11-06 12:18:00,70.8,51.2,30.14,East,99,3.0,5.0,50,0.00,,,0.00,Wunderground v.1.15,2013-11-06 17:18:00,
2013-11-06 12:23:00,71.1,50.4,30.14,ESE,113,3.0,3.0,48,0.00,,,0.00,Wunderground v.1.15,2013-11-06 17:23:00,
2013-11-06 12:28:00,71.3,50.6,30.14,South,170,3.0,4.0,48,0.00,,,0.00,Wunderground v.1.15,2013-11-06 17:28:00,
2013-11-06 12:34:00,71.4,51.2,30.13,ENE,66,3.0,4.0,49,0.00,,,0.00,Wunderground v.1.15,2013-11-06 17:34:00,
2013-11-06 12:39:00,71.6,51.4,30.13,ENE,67,2.0,4.0,49,0.00,,,0.00,Wunderground v.1.15,2013-11-06 17:39:00,
2013-11-06 12:44:00,71.9,50.6,30.13,South,191,2.0,4.0,47,0.00,,,0.00,Wunderground v.1.15,2013-11-06 17:44:00,
2013-11-06 12:49:00,72.2,52.0,30.12,ESE,117,1.0,4.0,49,0.00,,,0.00,Wunderground v.1.15,2013-11-06 17:49:00,
2013-11-06 12:54:00,72.3,52.1,30.12,SW,229,1.0,3.0,49,0.00,,,0.00,Wunderground v.1.15,2013-11-06 17:54:00,
2013-11-06 13:00:00,72.5,51.7,30.11,North,360,1.0,1.0,48,0.00,,,0.00,Wunderground v.1.15,2013-11-06 18:00:00,
2013-11-06 13:06:00,72.3,50.4,30.11,NNW,327,1.0,2.0,46,0.00,,,0.00,Wunderground v.1.15,2013-11-06 18:06:00,
2013-11-06 13:11:00,71.9,50.6,30.10,ESE,123,1.0,5.0,47,0.00,,,0.00,Wunderground v.1.15,2013-11-06 18:11:00,
2013-11-06 13:16:00,71.7,52.1,30.10,ESE,113,1.0,5.0,50,0.00,,,0.00,Wunderground v.1.15,2013-11-06 18:16:00,
2013-11-06 13:22:00,71.5,51.3,30.10,ENE,64,2.0,2.0,49,0.00,,,0.00,Wunderground v.1.15,2013-11-06 18:22:00,
2013-11-06 13:28:00,71.5,51.3,30.09,ESE,117,2.0,6.0,49,0.00,,,0.00,Wunderground v.1.15,2013-11-06 18:28:00,
2013-11-06 13:33:00,71.7,52.1,30.09,North,10,1.0,2.0,50,0.00,,,0.00,Wunderground v.1.15,2013-11-06 18:33:00,
2013-11-06 13:38:00,71.8,51.0,30.09,South,171,1.0,2.0,48,0.00,,,0.00,Wunderground v.1.15,2013-11-06 18:38:00,
2013-11-06 13:44:00,71.7,52.6,30.08,ESE,104,1.0,3.0,51,0.00,,,0.00,Wunderground v.1.15,2013-11-06 18:44:00,
2013-11-06 13:49:00,71.5,51.3,30.08,SE,138,1.0,3.0,49,0.00,,,0.00,Wunderground v.1.15,2013-11-06 18:49:00,
2013-11-06 13:54:00,71.6,51.4,30.07,NNW,344,2.0,3.0,49,0.00,,,0.00,Wunderground v.1.15,2013-11-06 18:54:00,
2013-11-06 14:00:00,71.8,50.5,30.07,ESE,123,1.0,2.0,47,0.00,,,0.00,Wunderground v.1.15,2013-11-06 19:00:00,
2013-11-06 14:06:00,72.0,51.2,30.07,ESE,105,2.0,5.0,48,0.00,,,0.00,Wunderground v.1.15,2013-11-06 19:06:00,
2013-11-06 14:11:00,72.0,51.8,30.07,NNE,19,2.0,4.0,49,0.00,,,0.00,Wunderground v.1.15,2013-11-06 19:11:00,
2013-11-06 14:16:00,71.8,51.6,30.07,NNE,27,2.0,4.0,49,0.00,,,0.00,Wunderground v.1.15,2013-11-06 19:16:00,
2013-11-06 14:21:00,71.5,51.3,30.06,SE,134,2.0,9.0,49,0.00,,,0.00,Wunderground v.1.15,2013-11-06 19:21:00,
2013-11-06 14:26:00,71.5,50.8,30.06,NNE,22,1.0,9.0,48,0.00,,,0.00,Wunderground v.1.15,2013-11-06 19:26:00,
2013-11-06 14:31:00,71.4,51.8,30.06,NNE,32,1.0,2.0,50,0.00,,,0.00,Wunderground v.1.15,2013-11-06 19:31:00,
2013-11-06 14:36:00,71.4,51.2,30.05,SE,128,1.0,2.0,49,0.00,,,0.00,Wunderground v.1.15,2013-11-06 19:36:00,
2013-11-06 14:41:00,71.5,51.9,30.05,NE,49,1.0,2.0,50,0.00,,,0.00,Wunderground v.1.15,2013-11-06 19:41:00,
2013-11-06 14:46:00,71.5,51.3,30.05,SE,138,2.0,3.0,49,0.00,,,0.00,Wunderground v.1.15,2013-11-06 19:46:00,
2013-11-06 14:52:00,71.2,52.1,30.05,SSW,195,2.0,4.0,51,0.00,,,0.00,Wunderground v.1.15,2013-11-06 19:52:00,
2013-11-06 14:57:00,70.9,51.3,30.05,SSE,165,1.0,4.0,50,0.00,,,0.00,Wunderground v.1.15,2013-11-06 19:57:00,
2013-11-06 15:02:00,70.7,52.2,30.05,SW,232,0.0,1.0,52,0.00,,,0.00,Wunderground v.1.15,2013-11-06 20:02:00,
2013-11-06 15:07:00,70.6,51.6,30.05,SSW,210,0.0,5.0,51,0.00,,,0.00,Wunderground v.1.15,2013-11-06 20:07:00,
2013-11-06 15:13:00,70.5,51.5,30.05,NE,44,1.0,9.0,51,0.00,,,0.00,Wunderground v.1.15,2013-11-06 20:13:00,
2013-11-06 15:18:00,70.4,51.9,30.04,NW,319,2.0,9.0,52,0.00,,,0.00,Wunderground v.1.15,2013-11-06 20:18:00,
2013-11-06 15:23:00,70.4,52.4,30.04,SE,133,2.0,2.0,53,0.00,,,0.00,Wunderground v.1.15,2013-11-06 20:23:00,
2013-11-06 15:28:00,70.3,52.4,30.04,NE,42,1.0,3.0,53,0.00,,,0.00,Wunderground v.1.15,2013-11-06 20:28:00,
2013-11-06 15:34:00,70.2,52.8,30.04,ENE,69,1.0,1.0,54,0.00,,,0.00,Wunderground v.1.15,2013-11-06 20:34:00,
2013-11-06 15:40:00,70.4,51.9,30.04,East,98,1.0,3.0,52,0.00,,,0.00,Wunderground v.1.15,2013-11-06 20:40:00,
2013-11-06 15:45:00,70.4,53.0,30.04,ESE,116,1.0,3.0,54,0.00,,,0.00,Wunderground v.1.15,2013-11-06 20:45:00,
2013-11-06 15:50:00,70.3,53.4,30.04,ESE,109,1.0,1.0,55,0.00,,,0.00,Wunderground v.1.15,2013-11-06 20:50:00,
2013-11-06 15:55:00,70.0,53.6,30.04,SE,137,0.0,1.0,56,0.00,,,0.00,Wunderground v.1.15,2013-11-06 20:55:00,
2013-11-06 16:00:00,69.7,52.8,30.04,NE,42,0.0,0.0,55,0.00,,,0.00,Wunderground v.1.15,2013-11-06 21:00:00,
2013-11-06 16:06:00,69.5,52.6,30.03,ENE,63,0.0,0.0,55,0.00,,,0.00,Wunderground v.1.15,2013-11-06 21:06:00,
2013-11-06 16:12:00,69.3,53.4,30.03,South,177,0.0,0.0,57,0.00,,,0.00,Wunderground v.1.15,2013-11-06 21:12:00,
2013-11-06 16:18:00,69.1,54.2,30.03,South,179,0.0,0.0,59,0.00,,,0.00,Wunderground v.1.15,2013-11-06 21:18:00,
2013-11-06 16:23:00,68.9,53.0,30.03,South,179,0.0,0.0,57,0.00,,,0.00,Wunderground v.1.15,2013-11-06 21:23:00,
2013-11-06 16:28:00,68.7,53.3,30.02,ENE,66,1.0,2.0,58,0.00,,,0.00,Wunderground v.1.15,2013-11-06 21:28:00,
2013-11-06 16:33:00,68.6,52.8,30.02,ENE,67,1.0,2.0,57,0.00,,,0.00,Wunderground v.1.15,2013-11-06 21:33:00,
2013-11-06 16:39:00,68.5,52.7,30.02,SSW,212,1.0,2.0,57,0.00,,,0.00,Wunderground v.1.15,2013-11-06 21:39:00,
2013-11-06 16:44:00,68.1,52.8,30.02,SE,130,1.0,2.0,58,0.00,,,0.00,Wunderground v.1.15,2013-11-06 21:44:00,
2013-11-06 16:49:00,67.8,52.9,30.02,South,185,0.0,2.0,59,0.00,,,0.00,Wunderground v.1.15,2013-11-06 21:49:00,
2013-11-06 16:54:00,67.5,53.1,30.02,West,266,0.0,1.0,60,0.00,,,0.00,Wunderground v.1.15,2013-11-06 21:54:00,
2013-11-06 17:00:00,67.0,53.1,30.01,West,266,0.0,0.0,61,0.00,,,0.00,Wunderground v.1.15,2013-11-06 22:00:00,
2013-11-06 17:06:00,66.7,52.8,30.01,West,266,0.0,0.0,61,0.00,,,0.00,Wunderground v.1.15,2013-11-06 22:06:00,
2013-11-06 17:11:00,66.3,52.9,30.01,West,266,0.0,0.0,62,0.00,,,0.00,Wunderground v.1.15,2013-11-06 22:11:00,
2013-11-06 17:16:00,65.9,52.1,30.01,West,266,0.0,0.0,61,0.00,,,0.00,Wunderground v.1.15,2013-11-06 22:16:00,
2013-11-06 17:21:00,65.6,52.2,30.01,West,266,0.0,0.0,62,0.00,,,0.00,Wunderground v.1.15,2013-11-06 22:21:00,
2013-11-06 17:27:00,65.3,52.4,30.00,South,190,0.0,0.0,63,0.00,,,0.00,Wunderground v.1.15,2013-11-06 22:27:00,
2013-11-06 17:32:00,65.2,52.3,30.00,South,190,0.0,0.0,63,0.00,,,0.00,Wunderground v.1.15,2013-11-06 22:32:00,
2013-11-06 17:37:00,64.9,52.0,30.00,South,190,0.0,0.0,63,0.00,,,0.00,Wunderground v.1.15,2013-11-06 22:37:00,
2013-11-06 17:42:00,64.8,52.3,30.00,South,190,0.0,0.0,64,0.00,,,0.00,Wunderground v.1.15,2013-11-06 22:42:00,
2013-11-06 17:47:00,64.8,52.3,30.01,South,190,0.0,0.0,64,0.00,,,0.00,Wunderground v.1.15,2013-11-06 22:47:00,
2013-11-06 17:53:00,64.7,52.7,30.00,South,190,0.0,0.0,65,0.00,,,0.00,Wunderground v.1.15,2013-11-06 22:53:00,
2013-11-06 17:58:00,64.4,52.8,30.00,South,190,0.0,1.0,66,0.00,,,0.00,Wunderground v.1.15,2013-11-06 22:58:00,
2013-11-06 18:03:00,64.3,52.7,30.00,South,190,0.0,0.0,66,0.00,,,0.00,Wunderground v.1.15,2013-11-06 23:03:00,
2013-11-06 18:09:00,64.1,52.9,30.00,South,190,0.0,0.0,67,0.00,,,0.00,Wunderground v.1.15,2013-11-06 23:09:00,
2013-11-06 18:14:00,63.9,52.3,30.00,South,190,0.0,0.0,66,0.00,,,0.00,Wunderground v.1.15,2013-11-06 23:14:00,
2013-11-06 18:19:00,63.8,52.6,30.00,South,190,0.0,0.0,67,0.00,,,0.00,Wunderground v.1.15,2013-11-06 23:19:00,
2013-11-06 18:24:00,63.7,52.5,30.00,South,190,0.0,0.0,67,0.00,,,0.00,Wunderground v.1.15,2013-11-06 23:24:00,
2013-11-06 18:30:00,63.3,52.2,29.99,South,190,0.0,0.0,67,0.00,,,0.00,Wunderground v.1.15,2013-11-06 23:30:00,
2013-11-06 18:35:00,62.8,51.7,29.99,South,190,0.0,0.0,67,0.00,,,0.00,Wunderground v.1.15,2013-11-06 23:35:00,
2013-11-06 18:40:00,62.5,51.8,29.98,South,190,0.0,0.0,68,0.00,,,0.00,Wunderground v.1.15,2013-11-06 23:40:00,
2013-11-06 18:45:00,62.1,51.8,29.98,South,190,0.0,0.0,69,0.00,,,0.00,Wunderground v.1.15,2013-11-06 23:45:00,
2013-11-06 18:51:00,62.1,51.4,29.98,South,190,0.0,0.0,68,0.00,,,0.00,Wunderground v.1.15,2013-11-06 23:51:00,
2013-11-06 18:57:00,62.0,51.7,29.97,South,190,0.0,0.0,69,0.00,,,0.00,Wunderground v.1.15,2013-11-06 23:57:00,
2013-11-06 19:03:00,61.9,52.0,29.97,South,190,0.0,0.0,70,0.00,,,0.00,Wunderground v.1.15,2013-11-07 00:03:00,
2013-11-06 19:08:00,61.9,52.0,29.97,South,190,0.0,0.0,70,0.00,,,0.00,Wunderground v.1.15,2013-11-07 00:08:00,
2013-11-06 19:13:00,62.0,51.7,29.97,South,190,0.0,0.0,69,0.00,,,0.00,Wunderground v.1.15,2013-11-07 00:13:00,
2013-11-06 19:18:00,62.1,51.8,29.97,South,190,0.0,0.0,69,0.00,,,0.00,Wunderground v.1.15,2013-11-07 00:18:00,
2013-11-06 19:24:00,62.3,52.0,29.97,South,190,0.0,0.0,69,0.00,,,0.00,Wunderground v.1.15,2013-11-07 00:24:00,
2013-11-06 19:29:00,62.4,52.1,29.97,South,190,0.0,0.0,69,0.00,,,0.00,Wunderground v.1.15,2013-11-07 00:29:00,
2013-11-06 19:34:00,62.4,52.1,29.96,South,190,0.0,0.0,69,0.00,,,0.00,Wunderground v.1.15,2013-11-07 00:34:00,
2013-11-06 19:39:00,62.4,52.1,29.96,South,190,0.0,0.0,69,0.00,,,0.00,Wunderground v.1.15,2013-11-07 00:39:00,
2013-11-06 19:45:00,62.5,51.8,29.96,ESE,119,0.0,0.0,68,0.00,,,0.00,Wunderground v.1.15,2013-11-07 00:45:00,
2013-11-06 19:50:00,62.6,51.9,29.96,ESE,119,0.0,0.0,68,0.00,,,0.00,Wunderground v.1.15,2013-11-07 00:50:00,
2013-11-06 19:55:00,62.6,52.3,29.96,ESE,119,0.0,0.0,69,0.00,,,0.00,Wunderground v.1.15,2013-11-07 00:55:00,
2013-11-06 20:00:00,62.7,52.0,29.95,ESE,119,0.0,0.0,68,0.00,,,0.00,Wunderground v.1.15,2013-11-07 01:00:00,
2013-11-06 20:06:00,62.8,52.1,29.95,ESE,119,0.0,0.0,68,0.00,,,0.00,Wunderground v.1.15,2013-11-07 01:06:00,
2013-11-06 20:11:00,62.8,52.1,29.95,ESE,119,0.0,0.0,68,0.00,,,0.00,Wunderground v.1.15,2013-11-07 01:11:00,
2013-11-06 20:16:00,62.7,52.0,29.95,ESE,119,0.0,0.0,68,0.00,,,0.00,Wunderground v.1.15,2013-11-07 01:16:00,
2013-11-06 20:22:00,62.8,52.1,29.95,ESE,119,0.0,1.0,68,0.00,,,0.00,Wunderground v.1.15,2013-11-07 01:22:00,
2013-11-06 20:27:00,62.9,51.8,29.95,ESE,121,0.0,1.0,67,0.00,,,0.00,Wunderground v.1.15,2013-11-07 01:27:00,
2013-11-06 20:32:00,63.0,52.3,29.95,SE,144,0.0,0.0,68,0.00,,,0.00,Wunderground v.1.15,2013-11-07 01:32:00,
2013-11-06 20:37:00,63.2,52.5,29.95,SE,144,0.0,0.0,68,0.00,,,0.00,Wunderground v.1.15,2013-11-07 01:37:00,
2013-11-06 20:42:00,63.3,52.2,29.94,SE,144,0.0,0.0,67,0.00,,,0.00,Wunderground v.1.15,2013-11-07 01:42:00,
2013-11-06 20:48:00,63.3,52.2,29.94,South,188,0.0,1.0,67,0.00,,,0.00,Wunderground v.1.15,2013-11-07 01:48:00,
2013-11-06 20:53:00,63.7,52.5,29.94,ENE,78,1.0,1.0,67,0.00,,,0.00,Wunderground v.1.15,2013-11-07 01:53:00,
2013-11-06 20:58:00,63.8,52.6,29.94,ENE,78,0.0,1.0,67,0.00,,,0.00,Wunderground v.1.15,2013-11-07 01:58:00,
2013-11-06 21:04:00,63.8,52.2,29.94,ENE,73,0.0,1.0,66,0.00,,,0.00,Wunderground v.1.15,2013-11-07 02:04:00,
2013-11-06 21:09:00,63.8,52.6,29.94,SSE,161,0.0,1.0,67,0.00,,,0.00,Wunderground v.1.15,2013-11-07 02:09:00,
2013-11-06 21:14:00,63.8,51.8,29.94,SSE,150,0.0,1.0,65,0.00,,,0.00,Wunderground v.1.15,2013-11-07 02:14:00,
2013-11-06 21:20:00,63.8,52.2,29.94,SSE,150,0.0,0.0,66,0.00,,,0.00,Wunderground v.1.15,2013-11-07 02:20:00,
2013-11-06 21:25:00,63.7,52.5,29.93,SSE,150,0.0,0.0,67,0.00,,,0.00,Wunderground v.1.15,2013-11-07 02:25:00,
2013-11-06 21:30:00,63.5,51.9,29.94,ENE,57,0.0,0.0,66,0.00,,,0.00,Wunderground v.1.15,2013-11-07 02:30:00,
2013-11-06 21:36:00,63.7,52.1,29.94,SE,137,0.0,1.0,66,0.00,,,0.00,Wunderground v.1.15,2013-11-07 02:36:00,
2013-11-06 21:42:00,63.9,51.9,29.94,NNE,32,0.0,1.0,65,0.00,,,0.00,Wunderground v.1.15,2013-11-07 02:42:00,
2013-11-06 21:47:00,64.3,52.3,29.94,NE,46,1.0,1.0,65,0.00,,,0.00,Wunderground v.1.15,2013-11-07 02:47:00,
2013-11-06 21:52:00,64.2,52.2,29.94,NE,46,0.0,0.0,65,0.00,,,0.00,Wunderground v.1.15,2013-11-07 02:52:00,
2013-11-06 21:57:00,64.2,52.2,29.95,NE,38,0.0,2.0,65,0.00,,,0.00,Wunderground v.1.15,2013-11-07 02:57:00,
2013-11-06 22:03:00,64.7,52.2,29.94,ESE,118,1.0,1.0,64,0.00,,,0.00,Wunderground v.1.15,2013-11-07 03:03:00,
2013-11-06 22:08:00,64.9,52.8,29.94,NNE,14,0.0,3.0,65,0.00,,,0.00,Wunderground v.1.15,2013-11-07 03:08:00,
2013-11-06 22:14:00,65.0,53.4,29.95,NE,56,1.0,1.0,66,0.00,,,0.00,Wunderground v.1.15,2013-11-07 03:14:00,
2013-11-06 22:20:00,65.1,53.5,29.94,SE,126,1.0,1.0,66,0.00,,,0.00,Wunderground v.1.15,2013-11-07 03:20:00,
2013-11-06 22:25:00,65.1,53.9,29.95,SSE,148,1.0,4.0,67,0.00,,,0.00,Wunderground v.1.15,2013-11-07 03:25:00,
2013-11-06 22:30:00,65.1,54.3,29.95,SSE,148,0.0,0.0,68,0.00,,,0.00,Wunderground v.1.15,2013-11-07 03:30:00,
2013-11-06 22:35:00,64.7,54.7,29.95,SSE,153,0.0,1.0,70,0.00,,,0.00,Wunderground v.1.15,2013-11-07 03:35:00,
2013-11-06 22:41:00,64.4,54.8,29.95,ESE,111,1.0,1.0,71,0.00,,,0.00,Wunderground v.1.15,2013-11-07 03:41:00,
2013-11-06 22:47:00,64.0,55.5,29.96,NNE,28,1.0,2.0,74,0.00,,,0.00,Wunderground v.1.15,2013-11-07 03:47:00,
2013-11-06 22:52:00,63.4,56.1,29.95,ESE,103,1.0,1.0,77,0.00,,,0.00,Wunderground v.1.15,2013-11-07 03:52:00,
2013-11-06 22:58:00,62.7,56.4,29.95,South,176,1.0,2.0,80,0.00,,,0.00,Wunderground v.1.15,2013-11-07 03:58:00,
2013-11-06 23:03:00,62.2,56.3,29.95,South,175,0.0,1.0,81,0.00,,,0.00,Wunderground v.1.15,2013-11-07 04:03:00,
2013-11-06 23:08:00,61.7,56.5,29.95,SE,142,0.0,1.0,83,0.00,,,0.00,Wunderground v.1.15,2013-11-07 04:08:00,
2013-11-06 23:14:00,61.3,56.4,29.95,SE,142,0.0,0.0,84,0.00,,,0.00,Wunderground v.1.15,2013-11-07 04:14:00,
2013-11-06 23:19:00,60.9,56.7,29.95,ESE,115,0.0,1.0,86,0.00,,,0.00,Wunderground v.1.15,2013-11-07 04:19:00,
2013-11-06 23:24:00,60.6,56.7,29.95,ESE,115,0.0,1.0,87,0.00,,,0.00,Wunderground v.1.15,2013-11-07 04:24:00,
2013-11-06 23:30:00,60.3,56.4,29.95,ESE,115,0.0,0.0,87,0.00,,,0.00,Wunderground v.1.15,2013-11-07 04:30:00,
2013-11-06 23:35:00,60.1,56.8,29.95,ESE,112,0.0,0.0,89,0.00,,,0.00,Wunderground v.1.15,2013-11-07 04:35:00,
2013-11-06 23:40:00,59.9,56.6,29.95,ESE,117,0.0,0.0,89,0.00,,,0.00,Wunderground v.1.15,2013-11-07 04:40:00,
2013-11-06 23:45:00,59.6,56.7,29.95,ESE,121,0.0,1.0,90,0.00,,,0.00,Wunderground v.1.15,2013-11-07 04:45:00,
2013-11-06 23:51:00,59.3,56.4,29.95,SE,126,0.0,0.0,90,0.00,,,0.00,Wunderground v.1.15,2013-11-07 04:51:00,
2013-11-06 23:57:00,59.0,56.4,29.95,SE,126,0.0,0.0,91,0.00,,,0.00,Wunderground v.1.15,2013-11-07 04:57:00,